Погода в Захаровском

Россия / Свердловская область     56°42′09″N   62°38′28″E
темп.,
°C
ветер,
м/с
пор.,
м/с
влажн.,
%
обл.,
%
осадки,
мм/ч
давл.,
гПа
погр.,
м
7 марта, вс
вс723:00−15з448958 0.2 101063
02:00−18з34920 0.0 101232
05:00−19зюз339415 0.0 101220
08:00−20юз229582 0.0 101120
11:00−14ююз228974 0.0 1011225
14:00−11юв1285100 0.0 1009356
17:00−10ссв1186100 0.0 1007251
20:00−13с2392100 0.0 100640
8 марта, пн
пн823:00−17сз339388 0.0 100622
02:00−19з33988 0.0 100729
05:00−19з469647 0.0 100890
08:00−21зюз34949 0.0 100954
11:00−15ююз359021 0.0 1009236
14:00−11ю5886100 0.0 1006461
17:00−10ю51192100 0.1 1005662
20:00−8ю51190100 0.2 1004391
9 марта, вт
вт923:00−7ю51393100 0.3 1003475
02:00−7юз61384100 0.0 1004427
05:00−12ююз479069 0.0 1004104
08:00−9ю51094100 0.1 1003303
11:00−4ююз81489100 0.5 1000791
14:00−2юз81572100 0.4 10001740
17:00−4з5108277 0.4 1002657
20:00−7зсз2295100 0.3 100547
10 марта, ср
ср1023:00−11з229480 0.4 100721
02:00−15з119946 0.0 100621
05:00−15всв119867 0.0 100620
08:00−14ссв1298100 0.0 100520
11:00−10ссв2392100 0.1 1003239
14:00−8с3491100 0.1 1002385
17:00−8с3494100 0.3 1002397
20:00−11ссз3596100 0.3 1003113
11 марта, чт
чт1123:00−14сз5994100 0.3 1005297
02:00−16сз4895100 0.1 1006286
05:00−20зсз5994100 0.1 1008276
08:00−25з4109199 0.0 1009234
11:00−19з6108754 0.0 1009544
14:00−15з7119190 0.1 1009880
17:00−15з6108895 0.3 10091002
20:00−18з5118898 0.1 1011248